Date String (YYYY-MM-DD hh:mm:ss) UTC,Instrument flags,Ambient pressure (hPa),Sample flow (lpm),Bypass flow (lpm),Sample temperature (°C),Ambient temperature (°C),ASC tube jacket temperature (°C),LED temperature (°C),Box temperature (°C),Sample RH (%),Span deviation,Mass concentration (μg/m³),Mass concentration (μg/m³),Mass concentration (μg/m³)
DateTimeUTC,F1_M11,P_M11,Q1_M11,Q2_M11,T1_M11,T2_M11,T3_M11,T4_M11,T5_M11,U1_M11,ZSPAN_M11,X0_M11,X2_M11,X1_M11
2022-03-01 14:00:00,,0829.4,5.01,0.00,24.8,24.1,00.0,33.8,26.5,08.7,0000.0,0003.29,0001.21,0000.75
2022-03-01 14:01:00,,0829.4,5.00,0.00,24.8,24.1,00.0,33.8,26.6,08.7,0000.0,0002.34,0001.17,0000.74
2022-03-01 14:02:00,,0829.4,5.00,0.00,24.8,24.1,00.0,33.8,26.6,08.7,0000.0,0002.35,0001.18,0000.73
2022-03-01 14:03:00,,0829.4,5.01,0.00,24.8,24.1,00.0,33.8,26.6,08.7,0000.0,0002.37,0001.20,0000.73
2022-03-01 14:04:00,,0829.5,5.00,0.00,24.8,24.1,00.0,33.8,26.6,08.7,0000.0,0002.28,0001.16,0000.72
2022-03-01 14:05:00,,0829.4,4.99,0.00,24.8,24.1,00.0,33.8,26.6,08.7,0000.0,0003.02,0001.13,0000.71
2022-03-01 14:06:00,,0829.4,5.01,0.00,24.8,24.1,00.0,33.8,26.6,08.8,0000.0,0002.95,0001.05,0000.70
2022-03-01 14:07:00,,0829.5,5.01,0.00,24.8,24.1,00.0,33.8,26.6,08.8,0000.0,0003.04,0001.06,0000.69
2022-03-01 14:08:00,,0829.5,4.99,0.00,24.8,24.1,00.0,33.8,26.7,08.7,0000.0,0003.06,0001.11,0000.70
2022-03-01 14:09:00,,0829.5,5.00,0.00,24.8,24.2,00.0,33.8,26.7,08.7,0000.0,0002.95,0001.07,0000.70
2022-03-01 14:10:00,,0829.5,4.98,0.00,24.9,24.2,00.0,33.8,26.7,08.7,0000.0,0002.98,0001.08,0000.69
2022-03-01 14:11:00,,0829.5,5.01,0.00,24.9,24.2,00.0,33.8,26.7,08.7,0000.0,0003.13,0001.14,0000.68
2022-03-01 14:12:00,,0829.5,5.00,0.00,24.9,24.2,00.0,33.8,26.7,08.8,0000.0,0003.21,0001.16,0000.68
2022-03-01 14:13:00,,0829.5,5.01,0.00,24.9,24.2,00.0,33.8,26.7,08.9,0000.0,0003.28,0001.18,0000.68
2022-03-01 14:14:00,,0829.6,5.00,0.00,24.9,24.2,00.0,33.8,26.7,08.8,0000.0,0003.43,0001.20,0000.68
2022-03-01 14:15:00,,0829.5,5.00,0.00,24.9,24.2,00.0,33.8,26.7,08.8,0000.0,0003.99,0001.22,0000.68
2022-03-01 14:16:00,,0829.5,4.98,0.00,24.9,24.2,00.0,33.8,26.7,08.7,0000.0,0003.57,0001.23,0000.68
2022-03-01 14:17:00,,0829.6,5.01,0.00,24.9,24.2,00.0,33.9,26.8,08.8,0000.0,0003.11,0001.27,0000.67
2022-03-01 14:18:00,,0829.5,5.01,0.00,24.9,24.2,00.0,33.9,26.7,09.3,0000.0,0003.13,0001.29,0000.68
2022-03-01 14:19:00,,0829.5,4.98,0.00,24.9,24.2,00.0,33.9,26.7,09.1,0000.0,0003.01,0001.25,0000.68
2022-03-01 14:20:00,,0829.5,5.01,0.00,24.9,24.2,00.0,33.9,26.7,08.9,0000.0,0003.03,0001.27,0000.68
2022-03-01 14:21:00,,0829.5,5.00,0.00,24.9,24.2,00.0,33.9,26.8,08.8,0000.0,0003.01,0001.25,0000.67
2022-03-01 14:22:00,,0829.5,5.00,0.00,25.0,24.2,00.0,33.9,26.8,08.8,0000.0,0002.94,0001.22,0000.67
2022-03-01 14:23:00,,0829.5,4.98,0.00,25.0,24.3,00.0,33.9,26.8,08.7,0000.0,0002.84,0001.19,0000.68
2022-03-01 14:24:00,,0829.5,5.01,0.00,25.0,24.3,00.0,33.9,26.8,08.7,0000.0,0002.80,0001.19,0000.68
2022-03-01 14:25:00,,0829.5,5.01,0.00,25.0,24.3,00.0,33.9,26.8,08.7,0000.0,0002.69,0001.17,0000.68
2022-03-01 14:26:00,,0829.5,4.99,0.00,25.0,24.3,00.0,33.9,26.8,08.7,0000.0,0002.70,0001.14,0000.68
2022-03-01 14:27:00,,0829.6,5.01,0.00,25.0,24.3,00.0,33.9,26.9,08.7,0000.0,0003.70,0001.16,0000.69
2022-03-01 14:28:00,,0829.6,4.99,0.00,25.0,24.3,00.0,34.0,26.9,08.7,0000.0,0003.61,0001.14,0000.69
2022-03-01 14:29:00,,0829.6,5.00,0.00,25.0,24.3,00.0,34.0,26.9,08.7,0000.0,0003.54,0001.12,0000.69
2022-03-01 14:30:00,,0829.6,5.00,0.00,25.0,24.3,00.0,34.0,26.9,08.6,0000.0,0003.44,0001.10,0000.68
2022-03-01 14:31:00,,0829.6,5.00,0.00,25.1,24.4,00.0,34.0,26.9,08.6,0000.0,0003.38,0001.06,0000.68
2022-03-01 14:32:00,,0829.6,4.99,0.00,25.1,24.4,00.0,34.0,26.9,08.6,0000.0,0003.39,0001.08,0000.69
2022-03-01 14:33:00,,0829.6,5.01,0.00,25.1,24.4,00.0,34.0,26.9,08.5,0000.0,0003.41,0001.09,0000.69
2022-03-01 14:34:00,,0829.6,4.99,0.00,25.1,24.4,00.0,34.0,27.0,08.5,0000.0,0003.39,0001.08,0000.69
2022-03-01 14:35:00,,0829.6,5.01,0.00,25.1,24.4,00.0,34.0,27.0,08.4,0000.0,0003.43,0001.09,0000.69
2022-03-01 14:36:00,,0829.6,4.98,0.00,25.1,24.4,00.0,34.0,27.0,08.4,0000.0,0003.44,0001.10,0000.69
2022-03-01 14:37:00,,0829.6,5.01,0.00,25.1,24.4,00.0,34.0,26.9,08.4,0000.0,0002.73,0001.09,0000.69
2022-03-01 14:38:00,,0829.6,4.99,0.00,25.1,24.4,00.0,34.0,26.9,08.7,0000.0,0001.91,0001.09,0000.68
2022-03-01 14:39:00,,0829.7,5.00,0.00,25.1,24.4,00.0,34.1,26.9,08.9,0000.0,0001.93,0001.07,0000.67
2022-03-01 14:40:00,,0829.7,5.00,0.00,25.2,24.4,00.0,34.1,27.0,09.2,0000.0,0002.13,0001.11,0000.66
2022-03-01 14:41:00,,0829.8,5.01,0.00,25.2,24.5,00.0,34.1,27.0,09.1,0000.0,0002.25,0001.16,0000.66
2022-03-01 14:42:00,,0829.8,4.98,0.00,25.2,24.5,00.0,34.1,27.0,09.4,0000.0,0002.24,0001.15,0000.66
2022-03-01 14:43:00,,0829.8,5.01,0.00,25.2,24.5,00.0,34.1,27.0,09.8,0000.0,0002.37,0001.17,0000.66
2022-03-01 14:44:00,,0829.9,5.01,0.00,25.2,24.5,00.0,34.1,27.0,09.7,0000.0,0002.34,0001.17,0000.66
2022-03-01 14:45:00,,0829.9,5.00,0.00,25.2,24.5,00.0,34.1,27.1,09.7,0000.0,0002.41,0001.19,0000.66
2022-03-01 14:46:00,,0829.8,5.01,0.00,25.2,24.5,00.0,34.1,27.1,09.7,0000.0,0002.37,0001.18,0000.65
2022-03-01 14:47:00,,0829.9,4.98,0.00,25.3,24.5,00.0,34.1,27.1,09.5,0000.0,0002.28,0001.14,0000.64
2022-03-01 14:48:00,,0829.9,5.00,0.00,25.3,24.5,00.0,34.2,27.1,09.6,0000.0,0002.23,0001.13,0000.64
2022-03-01 14:49:00,,0830.0,5.01,0.00,25.3,24.5,00.0,34.2,27.1,09.7,0000.0,0002.14,0001.11,0000.64
2022-03-01 14:50:00,,0830.0,5.01,0.00,25.3,24.6,00.0,34.2,27.1,09.6,0000.0,0002.05,0001.12,0000.64
2022-03-01 14:51:00,,0830.0,5.01,0.00,25.3,24.6,00.0,34.2,27.1,09.5,0000.0,0001.92,0001.10,0000.64
2022-03-01 14:52:00,,0830.0,4.99,0.00,25.3,24.6,00.0,34.2,27.2,09.5,0000.0,0001.91,0001.09,0000.65
2022-03-01 14:53:00,,0830.0,5.00,0.00,25.3,24.6,00.0,34.2,27.1,09.4,0000.0,0001.97,0001.09,0000.66
2022-03-01 14:54:00,,0830.0,5.01,0.00,25.3,24.6,00.0,34.2,27.2,09.6,0000.0,0001.96,0001.13,0000.67
2022-03-01 14:55:00,,0830.0,4.98,0.00,25.4,24.6,00.0,34.2,27.2,09.5,0000.0,0002.07,0001.13,0000.66
2022-03-01 14:56:00,,0830.0,5.01,0.00,25.4,24.6,00.0,34.3,27.2,09.6,0000.0,0002.04,0001.10,0000.66
2022-03-01 14:57:00,,0830.0,5.01,0.00,25.4,24.6,00.0,34.3,27.2,09.6,0000.0,0002.00,0001.08,0000.66
2022-03-01 14:58:00,,0830.0,5.00,0.00,25.4,24.6,00.0,34.3,27.2,09.4,0000.0,0002.05,0001.09,0000.67
2022-03-01 14:59:00,,0830.0,5.00,0.00,25.4,24.7,00.0,34.3,27.2,09.4,0000.0,0002.05,0001.09,0000.67
